Weather History for Lee's Summit, MO

Change the Weather History Date:

Thursday, September 19, 2013

  Actual Average (KMKC) Record (KMKC)
Temperature  
Mean Temperature 80 °F -  
Max Temperature 91 °F 76 °F 95 °F (2000)
Min Temperature 68 °F 56 °F 45 °F (2003)
Cooling Degree Days 14    
Growing Degree Days 30 (Base 50)    
Moisture  
Dew Point 66 °F    
Average Humidity 75    
Maximum Humidity 94    
Minimum Humidity 37    
Precipitation  
Precipitation 1.19 in - - ()
Sea Level Pressure  
Sea Level Pressure 29.88 in    
Wind  
Wind Speed 11 mph (SW)    
Max Wind Speed 22 mph    
Max Gust Speed 39 mph    
Visibility 8 miles    
Events Rain , Thunderstorm    
Averages and records for this station are not official NWS values.
T = Trace of Precipitation, MM = Missing Value Source: NWS Daily Summary

Daily Weather History Graph

Daily Weather History Graph

Search for Another Location

Airport:

Trip Planner

Search our weather history database for the weather conditions in past years. The results will help you decide how hot, cold, wet, or windy it might be!

Date:

Astronomy

Sep. 19, 2013 Rise Set
Actual Time 7:02 AM CDT 7:18 PM CDT
Civil Twilight 6:36 AM CDT 7:45 PM CDT
Nautical Twilight 6:04 AM CDT 8:16 PM CDT
Astronomical Twilight 5:32 AM CDT 8:48 PM CDT
Moon 7:18 PM CDT (9/19) 7:12 AM CDT (9/19)
Length of Visible Light 13h 09m
Length of Day
12h 16m
Full, 100% of the Moon is Illuminated
Sep 19
Full
Sep 26
Last Quarter
Oct 4
New
Oct 11
First Quarter
Oct 18
Full

Hourly Weather History & Observations

Time (CDT) Temp. Heat Index Dew Point Humidity Pressure Visibility Wind Dir Wind Speed Gust Speed Precip Events Conditions
12:53 AM 77.0 °F - 66.9 °F 71% 29.86 in 10.0 mi South 12.7 mph 20.7 mph N/A   Clear
1:53 AM 75.9 °F - 66.0 °F 71% 29.86 in 10.0 mi SSW 12.7 mph 20.7 mph N/A   Clear
2:53 AM 75.0 °F - 64.9 °F 71% 29.86 in 10.0 mi SSW 9.2 mph 17.3 mph N/A   Clear
3:53 AM 73.9 °F - 64.9 °F 73% 29.87 in 10.0 mi South 10.4 mph - N/A   Clear
4:53 AM 73.0 °F - 66.0 °F 79% 29.86 in 10.0 mi South 13.8 mph 19.6 mph N/A   Clear
5:53 AM 73.9 °F - 66.0 °F 76% 29.86 in 10.0 mi South 12.7 mph 19.6 mph N/A   Partly Cloudy
6:53 AM 73.0 °F - 66.0 °F 79% 29.87 in 10.0 mi South 10.4 mph - N/A   Clear
7:53 AM 73.0 °F - 66.0 °F 79% 29.87 in 10.0 mi South 12.7 mph 19.6 mph N/A   Mostly Cloudy
8:53 AM 73.9 °F - 66.0 °F 76% 29.87 in 10.0 mi South 13.8 mph - N/A   Clear
9:53 AM 80.1 °F 82.1 °F 66.0 °F 62% 29.88 in 10.0 mi SSW 13.8 mph 23.0 mph N/A   Clear
10:53 AM 81.0 °F 83.0 °F 66.0 °F 60% 29.89 in 10.0 mi SSW 13.8 mph 20.7 mph N/A   Clear
11:53 AM 87.1 °F 89.9 °F 66.9 °F 51% 29.88 in 10.0 mi SSW 16.1 mph 23.0 mph N/A   Clear
12:53 PM 89.1 °F 91.0 °F 64.9 °F 45% 29.86 in 10.0 mi SW 18.4 mph 24.2 mph N/A   Clear
1:53 PM 91.0 °F 93.8 °F 66.0 °F 44% 29.84 in 10.0 mi SSW 13.8 mph 20.7 mph N/A   Clear
2:53 PM 91.9 °F 92.9 °F 63.0 °F 38% 29.80 in 10.0 mi SSW 18.4 mph 26.5 mph N/A   Clear
3:53 PM 91.9 °F 92.5 °F 62.1 °F 37% 29.77 in 10.0 mi SSW 21.9 mph 28.8 mph N/A   Partly Cloudy
4:53 PM 91.0 °F 92.6 °F 64.0 °F 41% 29.75 in 10.0 mi SSW 17.3 mph 28.8 mph N/A   Partly Cloudy
5:53 PM 88.0 °F 89.6 °F 64.9 °F 46% 29.75 in 10.0 mi South 9.2 mph 19.6 mph N/A   Mostly Cloudy
6:41 PM 86.0 °F 88.2 °F 66.2 °F 51% 29.78 in 10.0 mi South 11.5 mph 21.9 mph N/A Thunderstorm Thunderstorm
6:53 PM 86.0 °F 88.2 °F 66.0 °F 51% 29.77 in 10.0 mi SSW 8.1 mph - N/A Thunderstorm Thunderstorm
7:16 PM 73.4 °F - 64.4 °F 73% 29.90 in 8.0 mi NW 18.4 mph 39.1 mph 0.01 in Rain , Thunderstorm Light Thunderstorms and Rain
7:23 PM 69.8 °F - 66.2 °F 88% 29.90 in 2.5 mi NNW 4.6 mph 26.5 mph 0.10 in Rain , Thunderstorm Thunderstorms and Rain
7:26 PM 69.8 °F - 66.2 °F 88% 29.90 in 3.0 mi NW 8.1 mph - 0.10 in Rain , Thunderstorm Light Thunderstorms and Rain
7:40 PM 69.8 °F - 66.2 °F 88% 29.93 in 1.5 mi NW 9.2 mph - 0.33 in Rain , Thunderstorm Heavy Thunderstorms and Rain
7:45 PM 69.8 °F - 66.2 °F 88% 29.92 in 0.8 mi Variable 6.9 mph - 0.55 in Rain , Thunderstorm Heavy Thunderstorms and Rain
7:53 PM 69.1 °F - 66.0 °F 90% 29.90 in 1.0 mi Calm Calm - 0.68 in Rain , Thunderstorm Heavy Thunderstorms and Rain
8:15 PM 69.8 °F - 66.2 °F 88% 29.92 in 2.5 mi Variable 5.8 mph - 0.21 in Rain , Thunderstorm Light Thunderstorms and Rain
8:22 PM 69.8 °F - 66.2 °F 88% 29.92 in 10.0 mi WSW 9.2 mph 16.1 mph 0.22 in Rain , Thunderstorm Light Rain
8:39 PM 69.8 °F - 66.2 °F 88% 29.92 in 4.0 mi SW 9.2 mph - 0.28 in Rain , Thunderstorm Light Thunderstorms and Rain
8:53 PM 69.1 °F - 66.9 °F 93% 29.91 in 8.0 mi SSW 8.1 mph - 0.29 in Rain , Thunderstorm Light Thunderstorms and Rain
9:11 PM 69.8 °F - 66.2 °F 88% 29.94 in 4.0 mi West 5.8 mph - 0.07 in Rain Rain
9:18 PM 69.8 °F - 68.0 °F 94% 29.94 in 2.5 mi NW 6.9 mph - 0.10 in Rain , Thunderstorm Heavy Rain
9:26 PM 69.8 °F - 66.2 °F 88% 29.93 in 4.0 mi NNW 4.6 mph - 0.12 in Rain , Thunderstorm Rain
9:53 PM 69.1 °F - 66.9 °F 93% 29.91 in 6.0 mi SW 8.1 mph - 0.17 in Rain , Thunderstorm Rain
10:05 PM 69.8 °F - 66.2 °F 88% 29.93 in 5.0 mi SW 5.8 mph - 0.03 in Rain Rain
10:12 PM 69.8 °F - 68.0 °F 94% 29.93 in 6.0 mi West 3.5 mph - 0.04 in Rain Rain
10:21 PM 69.8 °F - 68.0 °F 94% 29.94 in 7.0 mi West 4.6 mph - 0.04 in Rain Light Rain
10:53 PM 68.0 °F - 66.0 °F 93% 29.89 in 10.0 mi WNW 8.1 mph - 0.05 in   Mostly Cloudy
11:14 PM 68.0 °F - 66.2 °F 94% 29.91 in 10.0 mi NW 5.8 mph - N/A   Mostly Cloudy
11:53 PM 68.0 °F - 66.0 °F 93% 29.89 in 7.0 mi NW 8.1 mph - N/A   Overcast